Weather in Shokino

Russia / Smolensk Oblast     54°58′31″N   32°25′33″E
temp.,
°C
wind,
m/s
gust,
m/s
humid.,
%
clouds,
%
prec.,
mm/h
press.,
hPa
HPBL,
m
22 january, sat
sat2200:00−9nne249896 0.1 99573
03:00−9n259785 0.3 997120
06:00−10n379671 0.1 1000191
09:00−14n379899 0.1 1003129
12:00−10n369586 0.1 1006185
15:00−6nnw369399 0.1 1007451
18:00−8nnw389585 0.1 1010235
21:00−9nnw389687 0.1 1012197
23 january, sun
sun2300:00−11nnw379685 0.1 1015192
03:00−12n279692 0.2 1017166
06:00−14nne269878 0.1 1020108
09:00−16nne269993 0.1 102487
12:00−11e369697 0.0 1027171
15:00−8ne129372 0.0 1030169
18:00−15nne229973 0.0 10339
21:00−18ne2210097 0.0 103612
24 january, mon
mon2400:00−19nne1110096 0.0 10389
03:00−20n11100100 0.0 10399
06:00−21nne11100100 0.0 10399
09:00−21nne11100100 0.0 10409
12:00−12ene119687 0.0 104080
15:00−8ese119312 0.0 1038118
18:00−16ne1110071 0.0 10389
21:00−19s0010099 0.0 10379
25 january, tue
tue2500:00−20s11100100 0.0 10369
03:00−22ssw11100100 0.0 10349
06:00−23ssw22100100 0.0 103115
09:00−22s22100100 0.0 103030
12:00−12ssw3695100 0.0 1027145
15:00−9ssw3892100 0.0 1023226
18:00−11ssw31093100 0.0 1022198
21:00−9ssw3896100 0.6 1020259
26 january, wed
wed2600:00−8ssw2496100 1.0 1019188
03:00−8ssw1197100 2.0 101970
06:00−9nnw2497100 0.4 101981
09:00−7n2996100 0.8 1019296
12:00−5n499498 0.2 1019486
15:00−4n3791100 0.3 1019610
18:00−6n3694100 0.1 1020368
21:00−9nnw2498100 0.1 102166